DW7098 Weather Reports


Display with metric or nautical units.
time (UTC)temp
F
wind
direction
speed
MPH
gust
MPH
rain 1hr
in
rain 24hr
in
rain mn
in
humidity
%
barometer
mb
20260902210055 58 63 3.0 10.0 0.00 0.00 0.00
20260902203037 58 44 4.0 9.0 0.00 0.00 0.00
20260902200106 59 79 2.0 8.0 0.00 0.00 0.00
20260902193048 59 60 3.0 8.0 0.00 0.00 0.00
20260902190055 60 60 3.0 7.0 0.00 0.00 0.00
20260902183037 60 64 1.0 5.0 0.00 0.00 0.00
20260902173043 60 86 1.0 5.0 0.00 0.00 0.00
20260902170052 59 56 0.0 5.0 0.00 0.00 0.00
20260902160106 59 72 2.0 6.0 0.00 0.00 0.00
20260902153045 58 55 1.0 6.0 0.00 0.00 0.00
20260902150056 58 67 1.0 6.0 0.00 0.00 0.00
20260902143036 58 66 2.0 5.0 0.00 0.00 0.00
20260902133042 58 75 3.0 5.0 0.00 0.00 0.00
20260902130054 58 75 1.0 5.0 0.00 0.00 0.00
20260902123037 59 48 2.0 3.0 0.00 0.00 0.00
20260902113027 59 56 0.0 5.0 0.00 0.00 0.00
20260902110052 58 271 0.0 2.0 0.00 0.00 0.00
20260902103050 58 49 1.0 3.0 0.00 0.00 0.00
20260902093043 59 53 0.0 1.0 0.00 0.00 0.00
20260902090050 59 91 0.0 3.0 0.00 0.00 0.00
20260902083033 59 70 2.0 3.0 0.00 0.00 0.00
20260902080059 59 76 2.0 4.0 0.00 0.00 0.00
20260902073041 59 93 0.0 2.0 0.00 0.00 0.00
20260902070109 59 56 0.0 1.0 0.00 0.00 0.00
20260902063044 59 70 0.0 2.0 0.00 0.00 0.00
20260902060055 60 237 0.0 0.0 0.00 0.00 0.00
20260902050107 60 42 0.0 1.0 0.00 0.00 0.00
20260902043048 60 292 0.0 1.0 0.00 0.00 0.00
20260902040100 60 231 0.0 1.0 0.00 0.00 0.00
20260902033037 60 249 0.0 1.0 0.00 0.00 0.00
20260902023031 61 165 0.0 3.0 0.00 0.00 0.00
20260902020104 62 298 0.0 4.0 0.00 0.00 0.00
20260902013044 62 192 1.0 6.0 0.00 0.00 0.00
20260902010113 62 214 1.0 4.0 0.00 0.00 0.00
20260902000103 64 219 1.0 4.0 0.00 0.00 0.00
20260901233046 63 250 0.0 6.0 0.00 0.00 0.00
20260901230053 63 227 0.0 5.0 0.00 0.00 0.00
20260901223034 62 73 0.0 3.0 0.00 0.00 0.00
20260901213049 63 251 0.0 1.0 0.00 0.00 0.00